| time (UTC) | temp F | wind direction | speed knots | gust knots | rain 1hr in | rain 24hr in | rain mn in | humidity % | barometer mb |
| 20260506123917 | 49 | 43 | 0.9 | 0.9 | 0.07 | 0.14 | 0.14 | 99 | 1006.1 |
| 20260506123414 | 49 | 43 | 0.9 | 0.9 | 0.07 | 0.14 | 0.14 | 99 | 1006.1 |
| 20260506122912 | 49 | 43 | 0.0 | 0.0 | 0.12 | 0.14 | 0.14 | 99 | 1006.3 |
| 20260506122408 | 49 | 43 | 0.0 | 0.0 | 0.05 | 0.13 | 0.13 | 99 | 1006.1 |
| 20260506121907 | 49 | 43 | 0.0 | 0.0 | 0.00 | 0.12 | 0.12 | 99 | 1006.0 |
| 20260506121403 | 49 | 43 | 0.0 | 0.0 | 0.00 | 0.12 | 0.12 | 99 | 1005.9 |
| 20260506120900 | 49 | 44 | 0.0 | 0.0 | 0.07 | 0.12 | 0.12 | 99 | 1006.0 |
| 20260506120358 | 49 | 44 | 0.0 | 0.0 | 0.07 | 0.12 | 0.12 | 99 | 1006.0 |
| 20260506115855 | 49 | 44 | 0.0 | 0.0 | 0.00 | 0.11 | 0.11 | 99 | 1006.2 |
| 20260506115353 | 49 | 43 | 0.0 | 0.9 | 0.00 | 0.11 | 0.11 | 99 | 1006.1 |
| 20260506114851 | 49 | 43 | 0.0 | 0.0 | 0.14 | 0.10 | 0.10 | 99 | 1006.4 |
| 20260506114348 | 49 | 43 | 0.0 | 0.0 | 0.14 | 0.10 | 0.10 | 99 | 1006.4 |
| 20260506113847 | 49 | 43 | 0.0 | 0.0 | 0.14 | 0.10 | 0.10 | 99 | 1006.5 |
| 20260506113344 | 49 | 43 | 0.0 | 0.0 | 0.12 | 0.09 | 0.09 | 99 | 1006.7 |
| 20260506112840 | 48 | 43 | 0.0 | 0.0 | 0.12 | 0.08 | 0.08 | 99 | 1007.0 |
| 20260506112338 | 48 | 44 | 0.0 | 0.0 | 0.07 | 0.07 | 0.07 | 99 | 1006.8 |
| 20260506111835 | 48 | 44 | 0.0 | 0.0 | 0.05 | 0.06 | 0.06 | 99 | 1006.9 |
| 20260506111333 | 48 | 44 | 0.0 | 0.0 | 0.05 | 0.06 | 0.06 | 99 | 1006.8 |
| 20260506110831 | 48 | 44 | 0.0 | 0.0 | 0.00 | 0.05 | 0.05 | 99 | 1006.9 |
| 20260506110327 | 48 | 44 | 0.0 | 0.0 | 0.00 | 0.05 | 0.05 | 99 | 1006.9 |
| 20260506105824 | 48 | 44 | 0.0 | 0.0 | 0.07 | 0.05 | 0.05 | 98 | 1006.9 |
| 20260506105320 | 48 | 44 | 0.0 | 0.0 | 0.07 | 0.05 | 0.05 | 98 | 1006.9 |
| 20260506104818 | 48 | 44 | 0.0 | 0.0 | 0.00 | 0.04 | 0.04 | 98 | 1006.8 |
| 20260506104316 | 48 | 44 | 0.0 | 0.0 | 0.00 | 0.04 | 0.04 | 98 | 1006.7 |
| 20260506103813 | 48 | 44 | 0.0 | 0.0 | 0.00 | 0.04 | 0.04 | 98 | 1006.9 |
| 20260506103311 | 48 | 44 | 0.0 | 0.0 | 0.05 | 0.04 | 0.04 | 98 | 1006.7 |
| 20260506102808 | 48 | 44 | 0.9 | 0.9 | 0.05 | 0.04 | 0.04 | 98 | 1006.7 |
| 20260506102306 | 48 | 46 | 0.9 | 0.9 | 0.00 | 0.03 | 0.03 | 98 | 1006.7 |
| 20260506101803 | 48 | 45 | 1.7 | 1.7 | 0.00 | 0.03 | 0.03 | 98 | 1006.5 |
| 20260506101259 | 48 | 46 | 1.7 | 1.7 | 0.00 | 0.03 | 0.03 | 98 | 1006.4 |
| 20260506100757 | 48 | 26 | 0.9 | 0.9 | 0.00 | 0.03 | 0.03 | 98 | 1006.5 |
| 20260506100255 | 48 | 25 | 1.7 | 1.7 | 0.00 | 0.03 | 0.03 | 98 | 1006.7 |
| 20260506095753 | 48 | 39 | 1.7 | 1.7 | 0.00 | 0.03 | 0.03 | 98 | 1006.5 |
| 20260506095250 | 48 | 18 | 1.7 | 1.7 | 0.00 | 0.03 | 0.03 | 98 | 1006.5 |
| 20260506094746 | 48 | 100 | 0.9 | 0.9 | 0.07 | 0.03 | 0.03 | 98 | 1006.3 |
| 20260506094245 | 48 | 105 | 0.9 | 0.9 | 0.07 | 0.03 | 0.03 | 98 | 1006.3 |
| 20260506093743 | 48 | 145 | 0.0 | 0.0 | 0.07 | 0.03 | 0.03 | 98 | 1006.3 |
| 20260506093240 | 48 | 145 | 0.0 | 0.0 | 0.00 | 0.02 | 0.02 | 98 | 1006.5 |
| 20260506092737 | 48 | 145 | 0.0 | 0.0 | 0.05 | 0.02 | 0.02 | 98 | 1006.2 |
| 20260506092235 | 48 | 145 | 0.0 | 0.0 | 0.05 | 0.02 | 0.02 | 97 | 1006.4 |
| 20260506091732 | 48 | 145 | 0.9 | 0.9 | 0.00 | 0.01 | 0.01 | 97 | 1006.4 |
| 20260506091230 | 48 | 145 | 0.0 | 0.0 | 0.00 | 0.01 | 0.01 | 97 | 1006.3 |
| 20260506090728 | 48 | 145 | 0.0 | 0.0 | 0.07 | 0.01 | 0.01 | 97 | 1006.3 |
| 20260506090224 | 48 | 145 | 0.0 | 0.0 | 0.07 | 0.01 | 0.01 | 97 | 1006.7 |
| 20260506085721 | 48 | 145 | 0.0 | 0.0 | 0.07 | 0.01 | 0.01 | 97 | 1006.7 |
| 20260506085217 | 48 | 145 | 0.0 | 0.0 | 0.00 | 0.00 | 0.00 | 97 | 1007.0 |
| 20260506084714 | 48 | 146 | 0.0 | 0.0 | 0.00 | 0.00 | 0.00 | 97 | 1006.9 |
| 20260506084210 | 48 | 203 | 0.0 | 0.0 | 0.00 | 0.00 | 0.00 | 97 | 1007.1 |
| 20260506083707 | 48 | 215 | 0.9 | 0.9 | 0.00 | 0.00 | 0.00 | 97 | 1007.0 |
| 20260506083205 | 48 | 92 | 0.0 | 0.9 | 0.00 | 0.00 | 0.00 | 96 | 1006.9 |
| 20260506082702 | 48 | 92 | 0.0 | 0.0 | 0.00 | 0.00 | 0.00 | 96 | 1007.1 |
| 20260506082202 | 48 | 92 | 0.0 | 0.0 | 0.00 | 0.00 | 0.00 | 96 | 1007.0 |
| 20260506081701 | 48 | 92 | 0.0 | 0.0 | 0.00 | 0.00 | 0.00 | 96 | 1006.9 |
| 20260506081158 | 48 | 92 | 0.0 | 0.0 | 0.00 | 0.00 | 0.00 | 96 | 1006.8 |
| 20260506080655 | 48 | 92 | 0.0 | 0.0 | 0.00 | 0.00 | 0.00 | 96 | 1006.5 |
| 20260506080151 | 48 | 87 | 0.9 | 0.9 | 0.00 | 0.00 | 0.00 | 96 | 1006.8 |
| 20260506073136 | 48 | 35 | 0.9 | 1.7 | 0.00 | 0.00 | 0.00 | 96 | 1007.1 |
| 20260506072632 | 48 | 15 | 1.7 | 1.7 | 0.00 | 0.00 | 0.00 | 96 | 1007.0 |
| 20260506072130 | 48 | 55 | 1.7 | 1.7 | 0.00 | 0.00 | 0.00 | 96 | 1007.0 |
| 20260506071628 | 48 | 58 | 0.9 | 0.9 | 0.00 | 0.00 | 0.00 | 96 | 1007.1 |
| 20260506071125 | 48 | 33 | 0.9 | 1.7 | 0.00 | 0.00 | 0.00 | 96 | 1007.0 |
| 20260506070622 | 48 | 45 | 0.9 | 0.9 | 0.00 | 0.00 | 0.00 | 96 | 1007.4 |
| 20260506070119 | 48 | 59 | 0.9 | 0.9 | 0.00 | 0.00 | 0.00 | 96 | 1007.2 |
| 20260506062056 | 49 | 55 | 0.9 | 0.9 | 0.00 | 0.00 | 0.00 | 95 | 1007.8 |
| 20260506061552 | 49 | 55 | 0.0 | 0.0 | 0.00 | 0.00 | 0.00 | 95 | 1007.9 |
| 20260506061050 | 49 | 55 | 0.9 | 0.9 | 0.00 | 0.00 | 0.00 | 94 | 1007.8 |
| 20260506060548 | 49 | 55 | 0.9 | 0.9 | 0.00 | 0.00 | 0.00 | 94 | 1007.9 |
| 20260506051017 | 48 | 56 | 0.0 | 0.0 | 0.00 | 0.00 | 0.00 | 94 | 1008.7 |
| 20260506050515 | 48 | 56 | 0.0 | 0.0 | 0.00 | 0.00 | 0.00 | 94 | 1008.6 |
| 20260506045006 | 48 | 56 | 0.0 | 0.0 | 0.00 | 0.00 | 0.00 | 94 | 1008.9 |
| 20260506044504 | 48 | 56 | 0.9 | 0.9 | 0.00 | 0.00 | 0.00 | 94 | 1008.9 |
| 20260506044000 | 48 | 56 | 0.0 | 0.0 | 0.00 | 0.00 | 0.00 | 94 | 1009.1 |
| 20260506043457 | 48 | 56 | 0.0 | 0.9 | 0.00 | 0.00 | 0.00 | 93 | 1009.0 |
| 20260506042955 | 49 | 56 | 0.0 | 0.0 | 0.00 | 0.00 | 0.00 | 91 | 1009.0 |
| 20260506042454 | 50 | 56 | 0.0 | 0.0 | 0.00 | 0.00 | 0.00 | 90 | 1008.9 |
| 20260506041951 | 50 | 56 | 0.0 | 0.0 | 0.00 | 0.00 | 0.00 | 89 | 1008.8 |
| 20260506041450 | 50 | 56 | 0.0 | 0.0 | 0.00 | 0.00 | 0.00 | 89 | 1008.9 |
| 20260506040947 | 50 | 56 | 0.0 | 0.0 | 0.00 | 0.00 | 0.00 | 89 | 1008.8 |
| 20260506040444 | 51 | 55 | 0.0 | 0.0 | 0.00 | 0.00 | 0.00 | 88 | 1008.9 |
| 20260506035939 | 51 | 57 | 0.9 | 0.9 | 0.00 | 0.26 | 0.26 | 88 | 1009.0 |
| 20260506035437 | 51 | 60 | 0.0 | 0.9 | 0.00 | 0.26 | 0.26 | 88 | 1008.6 |
| 20260506034934 | 51 | 45 | 0.0 | 0.9 | 0.00 | 0.26 | 0.26 | 89 | 1009.0 |
| 20260506034431 | 51 | 50 | 0.9 | 1.7 | 0.00 | 0.26 | 0.26 | 90 | 1009.1 |
| 20260506033928 | 51 | 74 | 0.0 | 0.0 | 0.00 | 0.26 | 0.26 | 90 | 1009.3 |
| 20260506033425 | 51 | 77 | 0.0 | 0.9 | 0.00 | 0.26 | 0.26 | 90 | 1009.3 |
| 20260506032922 | 50 | 31 | 0.9 | 0.9 | 0.00 | 0.26 | 0.26 | 90 | 1009.4 |
| 20260506032419 | 51 | 62 | 0.0 | 0.0 | 0.00 | 0.26 | 0.26 | 90 | 1009.7 |
| 20260506031916 | 51 | 61 | 0.0 | 0.0 | 0.00 | 0.26 | 0.26 | 89 | 1009.3 |
| 20260506031414 | 51 | 69 | 0.9 | 0.9 | 0.00 | 0.26 | 0.26 | 89 | 1009.3 |
| 20260506030911 | 51 | 70 | 0.0 | 0.0 | 0.00 | 0.26 | 0.26 | 88 | 1009.1 |
| 20260506030409 | 52 | 27 | 1.7 | 2.6 | 0.00 | 0.26 | 0.26 | 88 | 1009.3 |
| 20260506025906 | 52 | 31 | 1.7 | 2.6 | 0.00 | 0.26 | 0.26 | 88 | 1009.5 |
| 20260506025403 | 52 | 39 | 0.9 | 1.7 | 0.00 | 0.26 | 0.26 | 88 | 1009.4 |
| 20260506024859 | 52 | 8 | 1.7 | 2.6 | 0.00 | 0.26 | 0.26 | 88 | 1009.3 |
| 20260506024356 | 52 | 33 | 0.9 | 1.7 | 0.00 | 0.26 | 0.26 | 88 | 1009.3 |
| 20260506023851 | 52 | 40 | 1.7 | 1.7 | 0.00 | 0.26 | 0.26 | 88 | 1009.4 |
| 20260506023349 | 52 | 16 | 2.6 | 2.6 | 0.00 | 0.26 | 0.26 | 87 | 1009.6 |
| 20260506022845 | 52 | 46 | 0.9 | 0.9 | 0.00 | 0.26 | 0.26 | 87 | 1009.7 |
| 20260506022344 | 52 | 23 | 1.7 | 2.6 | 0.00 | 0.26 | 0.26 | 87 | 1009.5 |
| 20260506021841 | 53 | 38 | 0.9 | 0.9 | 0.00 | 0.26 | 0.26 | 87 | 1009.9 |
| 20260506021337 | 53 | 20 | 0.9 | 0.9 | 0.00 | 0.26 | 0.26 | 87 | 1009.7 |
| 20260506020834 | 53 | 38 | 0.9 | 0.9 | 0.00 | 0.26 | 0.26 | 86 | 1009.8 |
| 20260506020332 | 53 | 39 | 2.6 | 2.6 | 0.00 | 0.26 | 0.26 | 85 | 1009.6 |
| 20260506015829 | 53 | 28 | 0.9 | 0.9 | 0.00 | 0.26 | 0.26 | 85 | 1009.7 |
| 20260506015327 | 53 | 15 | 1.7 | 1.7 | 0.00 | 0.26 | 0.26 | 85 | 1009.1 |
| 20260506014823 | 53 | 34 | 3.5 | 3.5 | 0.00 | 0.26 | 0.26 | 84 | 1009.1 |
| 20260506014320 | 54 | 356 | 3.5 | 5.2 | 0.00 | 0.26 | 0.26 | 83 | 1009.0 |
| 20260506013817 | 54 | 19 | 4.3 | 5.2 | 0.00 | 0.26 | 0.26 | 82 | 1008.9 |
| 20260506013314 | 55 | 21 | 7.8 | 8.7 | 0.00 | 0.26 | 0.26 | 81 | 1009.0 |
| 20260506012811 | 55 | 63 | 2.6 | 2.6 | 0.00 | 0.26 | 0.26 | 84 | 1008.7 |
| 20260506012308 | 56 | 22 | 4.3 | 6.1 | 0.00 | 0.26 | 0.26 | 85 | 1008.6 |
| 20260506011805 | 57 | 28 | 4.3 | 6.1 | 0.00 | 0.26 | 0.26 | 86 | 1008.4 |
| 20260506011301 | 58 | 8 | 6.1 | 7.0 | 0.00 | 0.26 | 0.26 | 86 | 1008.1 |
| 20260506010759 | 58 | 347 | 5.2 | 7.8 | 0.00 | 0.26 | 0.26 | 88 | 1008.1 |
| 20260506010257 | 58 | 39 | 4.3 | 6.1 | 0.00 | 0.26 | 0.26 | 88 | 1008.0 |
| 20260506005754 | 59 | 322 | 5.2 | 6.1 | 0.00 | 0.26 | 0.26 | 88 | 1008.1 |
| 20260506005250 | 59 | 357 | 5.2 | 7.0 | 0.00 | 0.26 | 0.26 | 87 | 1008.1 |
| 20260506004746 | 59 | 24 | 5.2 | 7.0 | 0.00 | 0.26 | 0.26 | 87 | 1008.1 |
| 20260506004244 | 59 | 268 | 3.5 | 6.1 | 0.00 | 0.26 | 0.26 | 86 | 1008.0 |
| 20260506003740 | 59 | 342 | 2.6 | 2.6 | 0.00 | 0.26 | 0.26 | 85 | 1008.0 |
| 20260506003236 | 60 | 331 | 4.3 | 5.2 | 0.00 | 0.26 | 0.26 | 85 | 1007.9 |
| 20260506002733 | 60 | 265 | 4.3 | 5.2 | 0.00 | 0.26 | 0.26 | 84 | 1007.8 |
| 20260506002229 | 60 | 310 | 1.7 | 1.7 | 0.00 | 0.26 | 0.26 | 84 | 1007.7 |
| 20260506001725 | 60 | 308 | 0.9 | 0.9 | 0.00 | 0.26 | 0.26 | 84 | 1007.5 |
| 20260506001223 | 60 | 321 | 2.6 | 2.6 | 0.00 | 0.26 | 0.26 | 85 | 1007.5 |
| 20260506000719 | 60 | 330 | 2.6 | 2.6 | 0.00 | 0.26 | 0.26 | 88 | 1007.3 |
| 20260506000219 | 60 | 359 | 3.5 | 3.5 | 0.00 | 0.26 | 0.26 | 89 | 1007.5 |
| 20260505235714 | 60 | 111 | 0.0 | 0.0 | 0.00 | 0.26 | 0.26 | 90 | 1007.3 |
| 20260505235212 | 60 | 111 | 0.0 | 0.0 | 0.00 | 0.26 | 0.26 | 90 | 1007.1 |
| 20260505234708 | 60 | 111 | 0.0 | 0.0 | 0.00 | 0.26 | 0.26 | 90 | 1007.1 |
| 20260505234206 | 60 | 135 | 0.9 | 0.9 | 0.00 | 0.26 | 0.26 | 90 | 1007.1 |
| 20260505233702 | 60 | 135 | 0.9 | 0.9 | 0.00 | 0.26 | 0.26 | 90 | 1007.0 |
| 20260505233200 | 60 | 135 | 1.7 | 1.7 | 0.00 | 0.26 | 0.26 | 90 | 1006.9 |
| 20260505232657 | 60 | 134 | 0.9 | 1.7 | 0.00 | 0.26 | 0.26 | 91 | 1006.9 |
| 20260505232155 | 60 | 134 | 1.7 | 1.7 | 0.00 | 0.26 | 0.26 | 91 | 1006.9 |
| 20260505231651 | 60 | 134 | 1.7 | 1.7 | 0.00 | 0.26 | 0.26 | 91 | 1006.9 |
| 20260505231150 | 61 | 134 | 0.0 | 0.9 | 0.00 | 0.26 | 0.26 | 90 | 1006.9 |
| 20260505230648 | 61 | 141 | 1.7 | 1.7 | 0.00 | 0.26 | 0.26 | 89 | 1006.8 |
| 20260505230144 | 62 | 162 | 0.0 | 0.0 | 0.00 | 0.26 | 0.26 | 87 | 1006.9 |
| 20260505225635 | 62 | 183 | 1.7 | 2.6 | 0.00 | 0.26 | 0.26 | 84 | 1006.7 |
| 20260505225131 | 62 | 190 | 0.0 | 0.9 | 0.05 | 0.26 | 0.26 | 82 | 1006.9 |
| 20260505224628 | 63 | 247 | 1.7 | 2.6 | 0.05 | 0.26 | 0.26 | 82 | 1007.2 |
| 20260505224126 | 63 | 160 | 0.9 | 0.9 | 0.00 | 0.25 | 0.25 | 82 | 1007.4 |
| 20260505223623 | 63 | 158 | 0.0 | 0.9 | 0.00 | 0.25 | 0.25 | 82 | 1007.1 |
| 20260505223119 | 63 | 133 | 0.9 | 0.9 | 0.00 | 0.25 | 0.25 | 82 | 1006.9 |
| 20260505222615 | 63 | 139 | 3.5 | 6.1 | 0.00 | 0.25 | 0.25 | 82 | 1007.0 |
| 20260505222112 | 64 | 142 | 3.5 | 3.5 | 0.00 | 0.25 | 0.25 | 79 | 1006.7 |
| 20260505221609 | 64 | 168 | 0.9 | 0.9 | 0.00 | 0.25 | 0.25 | 78 | 1006.4 |
| 20260505221105 | 64 | 169 | 0.9 | 0.9 | 0.00 | 0.25 | 0.25 | 76 | 1006.3 |
| 20260505220602 | 65 | 151 | 1.7 | 1.7 | 0.00 | 0.25 | 0.25 | 75 | 1006.4 |
| 20260505220100 | 65 | 150 | 0.9 | 0.9 | 0.00 | 0.25 | 0.25 | 76 | 1006.4 |
| 20260505215557 | 65 | 171 | 0.9 | 1.7 | 0.00 | 0.25 | 0.25 | 78 | 1006.3 |
| 20260505215055 | 65 | 205 | 2.6 | 2.6 | 0.00 | 0.25 | 0.25 | 75 | 1006.2 |
| 20260505214553 | 66 | 243 | 2.6 | 2.6 | 0.00 | 0.25 | 0.25 | 75 | 1006.3 |
| 20260505214049 | 66 | 179 | 0.9 | 1.7 | 0.00 | 0.25 | 0.25 | 75 | 1006.0 |
| 20260505213547 | 66 | 149 | 0.9 | 0.9 | 0.00 | 0.25 | 0.25 | 75 | 1006.0 |
| 20260505213043 | 67 | 143 | 0.9 | 1.7 | 0.00 | 0.25 | 0.25 | 76 | 1006.0 |
| 20260505212540 | 66 | 200 | 0.0 | 0.9 | 0.00 | 0.25 | 0.25 | 77 | 1005.7 |
| 20260505212037 | 66 | 172 | 0.9 | 0.9 | 0.00 | 0.25 | 0.25 | 77 | 1005.7 |
| 20260505211534 | 65 | 134 | 1.7 | 1.7 | 0.00 | 0.25 | 0.25 | 78 | 1005.7 |
| 20260505211031 | 64 | 166 | 0.0 | 0.0 | 0.00 | 0.25 | 0.25 | 82 | 1005.8 |
| 20260505210528 | 64 | 166 | 0.0 | 0.9 | 0.00 | 0.25 | 0.25 | 80 | 1005.9 |
| 20260505210025 | 64 | 266 | 1.7 | 1.7 | 0.00 | 0.25 | 0.25 | 79 | 1005.7 |
| 20260505205523 | 63 | 133 | 0.9 | 1.7 | 0.00 | 0.25 | 0.25 | 81 | 1005.9 |
| 20260505205020 | 63 | 121 | 0.0 | 0.9 | 0.00 | 0.25 | 0.25 | 82 | 1005.8 |
| 20260505204518 | 62 | 155 | 0.0 | 0.9 | 0.00 | 0.25 | 0.25 | 82 | 1005.8 |
| 20260505204015 | 61 | 214 | 0.9 | 0.9 | 0.00 | 0.25 | 0.25 | 86 | 1006.0 |
| 20260505203511 | 60 | 326 | 0.9 | 1.7 | 0.00 | 0.25 | 0.25 | 84 | 1006.2 |
| 20260505203008 | 60 | 332 | 0.0 | 0.0 | 0.00 | 0.25 | 0.25 | 86 | 1006.3 |
| 20260505202504 | 60 | 332 | 0.0 | 0.9 | 0.00 | 0.25 | 0.25 | 86 | 1006.7 |
| 20260505202000 | 60 | 227 | 0.9 | 0.9 | 0.00 | 0.25 | 0.25 | 86 | 1006.8 |
| 20260505201457 | 60 | 227 | 0.0 | 0.0 | 0.07 | 0.25 | 0.25 | 88 | 1006.9 |
| 20260505200955 | 60 | 240 | 1.7 | 1.7 | 0.07 | 0.25 | 0.25 | 88 | 1007.0 |
| 20260505200453 | 59 | 215 | 0.9 | 1.7 | 0.12 | 0.25 | 0.25 | 88 | 1007.3 |
| 20260505195948 | 59 | 244 | 1.7 | 1.7 | 0.19 | 0.24 | 0.24 | 88 | 1007.2 |
| 20260505195445 | 60 | 231 | 3.5 | 3.5 | 0.12 | 0.22 | 0.22 | 87 | 1007.9 |
| 20260505194943 | 60 | 260 | 7.8 | 9.6 | 0.05 | 0.21 | 0.21 | 86 | 1007.8 |
| 20260505194440 | 60 | 247 | 5.2 | 7.0 | 0.12 | 0.20 | 0.20 | 84 | 1007.5 |
| 20260505193940 | 61 | 296 | 2.6 | 2.6 | 0.31 | 0.20 | 0.20 | 82 | 1007.3 |
| 20260505193438 | 64 | 326 | 7.0 | 7.8 | 0.19 | 0.18 | 0.18 | 73 | 1007.0 |
| 20260505192935 | 70 | 270 | 11.3 | 14.8 | 0.00 | 0.15 | 0.15 | 55 | 1006.4 |
| 20260505192433 | 71 | 229 | 2.6 | 3.5 | 0.00 | 0.15 | 0.15 | 45 | 1005.6 |
| 20260505191931 | 72 | 257 | 5.2 | 7.8 | 0.00 | 0.15 | 0.15 | 43 | 1005.3 |
| 20260505191430 | 72 | 176 | 4.3 | 7.0 | 0.00 | 0.15 | 0.15 | 43 | 1004.8 |
| 20260505190926 | 72 | 297 | 8.7 | 13.0 | 0.00 | 0.15 | 0.15 | 45 | 1004.8 |
| 20260505190421 | 72 | 216 | 3.5 | 3.5 | 0.00 | 0.15 | 0.15 | 45 | 1004.9 |
| 20260505185916 | 73 | 236 | 5.2 | 8.7 | 0.00 | 0.15 | 0.15 | 46 | 1004.7 |
| 20260505185414 | 73 | 72 | 1.7 | 2.6 | 0.00 | 0.15 | 0.15 | 48 | 1004.7 |
| 20260505184910 | 73 | 222 | 7.8 | 9.6 | 0.00 | 0.15 | 0.15 | 47 | 1004.8 |
| 20260505184407 | 73 | 222 | 2.6 | 2.6 | 0.00 | 0.15 | 0.15 | 54 | 1004.7 |
| 20260505183904 | 73 | 316 | 2.6 | 2.6 | 0.00 | 0.15 | 0.15 | 50 | 1004.7 |
| 20260505183401 | 73 | 191 | 6.1 | 7.8 | 0.00 | 0.15 | 0.15 | 48 | 1004.7 |
| 20260505182857 | 73 | 114 | 5.2 | 7.8 | 0.00 | 0.15 | 0.15 | 50 | 1004.9 |
| 20260505182354 | 73 | 215 | 2.6 | 2.6 | 0.00 | 0.15 | 0.15 | 54 | 1004.9 |
| 20260505181851 | 72 | 169 | 3.5 | 5.2 | 0.00 | 0.15 | 0.15 | 61 | 1005.0 |
| 20260505181348 | 71 | 222 | 1.7 | 2.6 | 0.00 | 0.15 | 0.15 | 68 | 1005.2 |
| 20260505180845 | 70 | 221 | 1.7 | 2.6 | 0.00 | 0.15 | 0.15 | 66 | 1005.3 |
| 20260505180341 | 68 | 175 | 1.7 | 1.7 | 0.00 | 0.15 | 0.15 | 69 | 1005.4 |
| 20260505175838 | 67 | 219 | 4.3 | 5.2 | 0.00 | 0.15 | 0.15 | 72 | 1005.8 |
| 20260505175334 | 65 | 206 | 1.7 | 3.5 | 0.00 | 0.15 | 0.15 | 77 | 1005.9 |
| 20260505174831 | 63 | 216 | 2.6 | 3.5 | 0.00 | 0.15 | 0.15 | 80 | 1005.9 |
| 20260505174328 | 61 | 105 | 1.7 | 2.6 | 0.42 | 0.15 | 0.15 | 88 | 1005.8 |
| 20260505173824 | 61 | 252 | 2.6 | 3.5 | 0.90 | 0.15 | 0.15 | 83 | 1006.1 |
| 20260505173320 | 65 | 194 | 5.2 | 6.1 | 0.47 | 0.08 | 0.08 | 68 | 1006.1 |
| 20260505172818 | 71 | 162 | 3.5 | 6.1 | 0.00 | 0.00 | 0.00 | 52 | 1006.1 |
| 20260505172316 | 71 | 254 | 2.6 | 3.5 | 0.00 | 0.00 | 0.00 | 49 | 1005.8 |
| 20260505171815 | 71 | 250 | 5.2 | 6.1 | 0.00 | 0.00 | 0.00 | 46 | 1006.0 |
| 20260505171313 | 72 | 171 | 1.7 | 1.7 | 0.00 | 0.00 | 0.00 | 46 | 1005.8 |
| 20260505170808 | 72 | 221 | 4.3 | 6.1 | 0.00 | 0.00 | 0.00 | 43 | 1005.9 |
| 20260505170306 | 73 | 228 | 5.2 | 7.0 | 0.00 | 0.00 | 0.00 | 43 | 1005.7 |
| 20260505165801 | 74 | 226 | 4.3 | 6.1 | 0.00 | 0.00 | 0.00 | 42 | 1005.7 |
| 20260505165257 | 74 | 217 | 8.7 | 9.6 | 0.00 | 0.00 | 0.00 | 40 | 1005.3 |
| 20260505164753 | 74 | 196 | 8.7 | 13.0 | 0.00 | 0.00 | 0.00 | 44 | 1005.4 |
| 20260505164250 | 74 | 220 | 7.8 | 8.7 | 0.00 | 0.00 | 0.00 | 42 | 1005.2 |
| 20260505163748 | 75 | 293 | 4.3 | 7.0 | 0.00 | 0.00 | 0.00 | 43 | 1005.4 |
| 20260505163247 | 75 | 245 | 6.1 | 7.8 | 0.00 | 0.00 | 0.00 | 43 | 1005.5 |
| 20260505162744 | 75 | 185 | 5.2 | 7.0 | 0.00 | 0.00 | 0.00 | 43 | 1005.4 |
| 20260505162241 | 75 | 289 | 7.8 | 12.2 | 0.00 | 0.00 | 0.00 | 43 | 1005.5 |
| 20260505161737 | 75 | 203 | 2.6 | 2.6 | 0.00 | 0.00 | 0.00 | 47 | 1005.9 |
| 20260505161235 | 75 | 241 | 4.3 | 6.1 | 0.00 | 0.00 | 0.00 | 44 | 1005.9 |
| 20260505160732 | 74 | 235 | 5.2 | 7.0 | 0.00 | 0.00 | 0.00 | 44 | 1005.8 |
| 20260505160230 | 74 | 238 | 3.5 | 3.5 | 0.00 | 0.00 | 0.00 | 44 | 1005.8 |
| 20260505153209 | 74 | 212 | 3.5 | 3.5 | 0.00 | 0.00 | 0.00 | 46 | 1006.3 |
| 20260505152706 | 74 | 257 | 3.5 | 5.2 | 0.00 | 0.00 | 0.00 | 46 | 1006.0 |
| 20260505152202 | 73 | 216 | 3.5 | 5.2 | 0.00 | 0.00 | 0.00 | 48 | 1005.9 |
| 20260505151657 | 74 | 325 | 5.2 | 7.0 | 0.00 | 0.00 | 0.00 | 48 | 1005.8 |
| 20260505151155 | 73 | 201 | 2.6 | 2.6 | 0.00 | 0.00 | 0.00 | 49 | 1005.9 |
| 20260505150651 | 72 | 146 | 0.9 | 1.7 | 0.00 | 0.00 | 0.00 | 48 | 1005.8 |
| 20260505150149 | 72 | 234 | 10.4 | 20.0 | 0.00 | 0.00 | 0.00 | 47 | 1005.5 |
| 20260505140622 | 69 | 210 | 7.0 | 12.2 | 0.00 | 0.00 | 0.00 | 52 | 1006.1 |
| 20260505140119 | 69 | 216 | 4.3 | 7.0 | 0.00 | 0.00 | 0.00 | 52 | 1006.1 |
| 20260505125036 | 63 | 168 | 1.7 | 2.6 | 0.00 | 0.00 | 0.00 | 62 | 1006.7 |
| 20260505124532 | 62 | 218 | 3.5 | 5.2 | 0.00 | 0.00 | 0.00 | 62 | 1006.9 |